This is the latest recevied weather packets stored in our database for station/object UB3AVW-12. If no packets are shown the sender has not sent any weather packets the latest 1 day(s).
| Time | Temp. | Humidity | Pressure | Rain* | Wind** | Luminosity | Snow |
|---|---|---|---|---|---|---|---|
| 1778095247 | 15° C | 77% | 983 hPa | - | 3.58 m/s, 59° | - | - |
| 1778094640 | 15° C | 77% | 983 hPa | - | 3.58 m/s, 59° | - | - |
| 1778093426 | 15° C | 77% | 984 hPa | - | 3.13 m/s, 51° | - | - |
| 1778092210 | 15° C | 77% | 984 hPa | - | 3.13 m/s, 51° | - | - |
| 1778090992 | 15° C | 77% | 984 hPa | - | 3.13 m/s, 56° | - | - |
| 1778090688 | 15° C | 77% | 984 hPa | - | 3.13 m/s, 56° | - | - |
| 1778090081 | 15° C | 77% | 983 hPa | - | 2.68 m/s, 56° | - | - |
| 1778087956 | 16.67° C | 69% | 983.2 hPa | - | 2.68 m/s, 51° | - | - |
| 1778087349 | 16.67° C | 69% | 983.2 hPa | - | 2.68 m/s, 51° | - | - |
| 1778086438 | 16.67° C | 69% | 983.2 hPa | - | 2.24 m/s, 50° | - | - |
| 1778085831 | 16.67° C | 69% | 983.2 hPa | - | 2.68 m/s, 50° | - | - |
| 1778085528 | 16.67° C | 69% | 983.2 hPa | - | 2.68 m/s, 50° | - | - |
| 1778085433 | 17.78° C | 60% | 983.3 hPa | - | 3.13 m/s, 21° | - | - |
| 1778084314 | 17.78° C | 60% | 983.3 hPa | - | 3.13 m/s, 21° | - | - |
| 1778084011 | 17.78° C | 60% | 983.3 hPa | - | 3.13 m/s, 21° | - | - |
| 1778083672 | 20.56° C | 59% | 982.6 hPa | - | 3.58 m/s, 17° | - | - |
| 1778082796 | 20.56° C | 59% | 982.6 hPa | - | 3.58 m/s, 25° | - | - |
| 1778081886 | 20.56° C | 59% | 982.6 hPa | - | 3.58 m/s, 25° | - | - |
| 1778081851 | 21.67° C | 49% | 982.7 hPa | - | 3.58 m/s, 274° | - | - |
| 1778081582 | 21.67° C | 49% | 982.7 hPa | - | 3.58 m/s, 274° | - | - |
| 1778080975 | 21.67° C | 49% | 982.7 hPa | - | 3.58 m/s, 274° | - | - |
| 1778080672 | 21.67° C | 49% | 982.7 hPa | - | 3.58 m/s, 274° | - | - |
| 1778080065 | 21.67° C | 49% | 982.7 hPa | - | 3.58 m/s, 274° | - | - |
| 1778080030 | 21.67° C | 49% | 982.7 hPa | - | 3.58 m/s, 274° | - | - |
| 1778079155 | 21.67° C | 49% | 982.7 hPa | - | 3.58 m/s, 291° | - | - |
* Rain since midnight (hover to see other rain measurements)
** Current wind speed in m/s (hover to see current wind gust speed)